Jonesboro, AR

8:22 AM CDT on September 23, 2017 (GMT -0500)
Jonesboro Municipal

Weather History for KJBR - March, 2014

Change the Weather History Date:

Saturday, March 1, 2014

  Actual Average Record
Temperature  
Mean Temperature 49 °F 45 °F  
Max Temperature 55 °F 55 °F 83 °F (1932)
Min Temperature 42 °F 36 °F 9 °F (1980)
Degree Days  
Heating Degree Days 16 20  
Month to date heating degree days 16 20  
Since 1 July heating degree days 3281 2976  
Cooling Degree Days 0 0  
Month to date cooling degree days 0 0  
Year to date cooling degree days 0 0  
Moisture  
Dew Point 39 °F    
Average Humidity 71    
Maximum Humidity 82    
Minimum Humidity 59    
Precipitation  
Precipitation 0.00 in 0.14 in 1.26 in (1991)
Month to date precipitation 0.00 0.14  
Year to date precipitation 4.71 7.29  
Snow  
Snow 0.00 in - - ()
Month to date snowfall 0.0  
Snow Depth 0.00 in    
Sea Level Pressure  
Sea Level Pressure 30.08 in    
Wind  
Wind Speed 6 mph (ENE)    
Max Wind Speed 13 mph    
Max Gust Speed 15 mph    
Visibility 10 miles    
Events      
T = Trace of Precipitation, MM = Missing Value Source: NWS Daily Summary

Daily Weather History Graph

Daily Weather History Graph

Search for Another Location

Airport or City:

Trip Planner

Search our weather history database for the weather conditions in past years. The results will help you decide how hot, cold, wet, or windy it might be!

Date:

Astronomy

Mar. 01, 2014 Rise Set
Actual Time 6:32 AM CST 5:57 PM CST
Civil Twilight 6:06 AM CST 6:23 PM CST
Nautical Twilight 5:37 AM CST 6:53 PM CST
Astronomical Twilight 5:07 AM CST 7:22 PM CST
Moon 6:28 AM CST (3/1) 6:42 PM CST (3/1)
Length of Visible Light 12h 16m
Length of Day
11h 25m
New Moon, 0% of the Moon is Illuminated
Mar 1
New Moon
Mar 8
First Quarter
Mar 16
Full
Mar 23
Last Quarter
Mar 30
New

Hourly Weather History & Observations

Time (CST) Temp. Windchill Dew Point Humidity Pressure Visibility Wind Dir Wind Speed Gust Speed Precip Events Conditions
12:53 AM 43.0 °F 41.3 °F 36.0 °F 76% 30.04 in 10.0 mi NE 3.5 mph - N/A   Overcast
1:53 AM 43.0 °F 40.3 °F 36.0 °F 76% 30.04 in 10.0 mi ENE 4.6 mph - N/A   Overcast
2:53 AM 43.0 °F 40.3 °F 36.0 °F 76% 30.04 in 10.0 mi NE 4.6 mph - N/A   Overcast
3:53 AM 42.1 °F 40.2 °F 37.0 °F 82% 30.04 in 10.0 mi NE 3.5 mph - N/A   Overcast
4:53 AM 43.0 °F 41.3 °F 36.0 °F 76% 30.08 in 10.0 mi North 3.5 mph - N/A   Overcast
5:53 AM 43.0 °F - 37.0 °F 80% 30.09 in 10.0 mi Calm Calm - N/A   Overcast
6:53 AM 43.0 °F - 37.0 °F 80% 30.10 in 10.0 mi Calm Calm - N/A   Overcast
7:53 AM 44.1 °F 41.5 °F 37.9 °F 79% 30.12 in 10.0 mi NE 4.6 mph - N/A   Overcast
8:53 AM 46.0 °F 44.8 °F 39.0 °F 76% 30.13 in 10.0 mi East 3.5 mph - N/A   Overcast
9:53 AM 48.9 °F - 39.0 °F 69% 30.14 in 10.0 mi East 3.5 mph - N/A   Overcast
10:53 AM 50.0 °F - 37.9 °F 63% 30.14 in 10.0 mi Calm Calm - N/A   Overcast
11:12 AM 51.8 °F - 37.4 °F 58% 30.14 in 10.0 mi Calm Calm - N/A   Overcast
11:53 AM 52.0 °F - 39.0 °F 61% 30.14 in 10.0 mi ENE 5.8 mph - N/A   Overcast
12:53 PM 52.0 °F - 37.9 °F 59% 30.12 in 10.0 mi ENE 6.9 mph - N/A   Overcast
1:53 PM 52.0 °F - 39.0 °F 61% 30.09 in 10.0 mi ENE 6.9 mph - N/A   Overcast
2:02 PM 53.6 °F - 39.2 °F 58% 30.09 in 10.0 mi ENE 6.9 mph - N/A   Overcast
2:53 PM 54.0 °F - 41.0 °F 62% 30.08 in 10.0 mi NE 5.8 mph - N/A   Overcast
3:09 PM 55.4 °F - 41.0 °F 58% 30.07 in 10.0 mi ENE 6.9 mph - N/A   Mostly Cloudy
3:53 PM 54.0 °F - 41.0 °F 62% 30.06 in 10.0 mi ENE 9.2 mph - N/A   Overcast
4:53 PM 54.0 °F - 42.1 °F 64% 30.07 in 10.0 mi NE 11.5 mph - N/A   Overcast
5:53 PM 52.0 °F - 41.0 °F 66% 30.07 in 10.0 mi ENE 8.1 mph - N/A   Overcast
6:53 PM 51.1 °F - 42.1 °F 71% 30.07 in 10.0 mi ENE 10.4 mph - N/A   Overcast
7:53 PM 51.1 °F - 42.1 °F 71% 30.06 in 10.0 mi ENE 9.2 mph - N/A   Overcast
8:53 PM 50.0 °F - 41.0 °F 71% 30.06 in 10.0 mi NE 8.1 mph - N/A   Overcast
9:53 PM 50.0 °F - 41.0 °F 71% 30.06 in 10.0 mi ENE 9.2 mph - N/A   Overcast
10:53 PM 50.0 °F - 41.0 °F 71% 30.06 in 10.0 mi NE 6.9 mph - N/A   Overcast
11:53 PM 51.1 °F - 39.9 °F 66% 30.04 in 10.0 mi NE 6.9 mph - N/A   Overcast